| time (UTC) | temp F | wind direction | speed MPH | gust MPH | rain 1hr in | rain 24hr in | rain mn in | humidity % | barometer mb |
| 20260504043137 | 47 | 184 | 4.0 | 6.0 | 0.02 | 0.09 | 0.09 | 99 | 1003.8 |
| 20260504041638 | 47 | 173 | 4.0 | 6.0 | 0.03 | 0.09 | 0.09 | 99 | 1003.9 |
| 20260504040042 | 47 | 163 | 3.0 | 6.0 | 0.03 | 0.09 | 0.09 | 98 | 1004.0 |
| 20260504034541 | 47 | 164 | 3.0 | 5.0 | 0.04 | 0.09 | 0.09 | 98 | 1004.1 |
| 20260504033037 | 47 | 181 | 4.0 | 7.0 | 0.03 | 0.07 | 0.07 | 98 | 1004.3 |
| 20260504031535 | 47 | 170 | 3.0 | 6.0 | 0.04 | 0.06 | 0.06 | 98 | 1004.3 |
| 20260504030041 | 47 | 156 | 4.0 | 8.0 | 0.04 | 0.06 | 0.06 | 98 | 1004.4 |
| 20260504024539 | 47 | 155 | 3.0 | 5.0 | 0.05 | 0.05 | 0.05 | 97 | 1004.5 |
| 20260504023038 | 47 | 154 | 3.0 | 5.0 | 0.04 | 0.04 | 0.04 | 97 | 1004.7 |
| 20260504021637 | 47 | 187 | 2.0 | 4.0 | 0.02 | 0.02 | 0.02 | 97 | 1004.8 |
| 20260504020041 | 47 | 162 | 2.0 | 6.0 | 0.02 | 0.02 | 0.02 | 97 | 1004.9 |
| 20260504014550 | 47 | 138 | 3.0 | 6.0 | 0.00 | 0.00 | 0.00 | 97 | 1005.0 |
| 20260504013037 | 47 | 150 | 3.0 | 5.0 | 0.00 | 0.00 | 0.00 | 96 | 1005.0 |
| 20260504011635 | 47 | 160 | 1.0 | 4.0 | 0.00 | 0.00 | 0.00 | 97 | 1005.3 |
| 20260504010038 | 47 | 156 | 1.0 | 3.0 | 0.00 | 0.00 | 0.00 | 96 | 1005.4 |
| 20260504004537 | 47 | 139 | 0.0 | 0.0 | 0.00 | 0.00 | 0.00 | 96 | 1005.4 |
| 20260504003048 | 47 | 139 | 0.0 | 0.0 | 0.00 | 0.00 | 0.00 | 96 | 1005.5 |
| 20260504001542 | 48 | 139 | 0.0 | 0.0 | 0.00 | 0.00 | 0.00 | 96 | 1005.6 |
| 20260503234546 | 48 | 93 | 0.0 | 0.0 | 0.00 | 0.00 | 0.00 | 96 | 1006.0 |
| 20260503233041 | 48 | 93 | 0.0 | 0.0 | 0.00 | 0.00 | 0.00 | 96 | 1006.2 |
| 20260503231540 | 48 | 93 | 0.0 | 0.0 | 0.00 | 0.00 | 0.00 | 96 | 1006.3 |
| 20260503230043 | 48 | 93 | 0.0 | 0.0 | 0.00 | 0.00 | 0.00 | 96 | 1006.4 |
| 20260503224540 | 48 | 93 | 0.0 | 1.0 | 0.00 | 0.00 | 0.00 | 96 | 1006.5 |
| 20260503223134 | 48 | 92 | 1.0 | 2.0 | 0.00 | 0.00 | 0.00 | 96 | 1006.7 |
| 20260503221537 | 48 | 103 | 1.0 | 3.0 | 0.00 | 0.00 | 0.00 | 96 | 1006.6 |
| 20260503220046 | 48 | 99 | 1.0 | 3.0 | 0.00 | 0.00 | 0.00 | 96 | 1006.8 |
| 20260503214538 | 49 | 91 | 0.0 | 0.0 | 0.00 | 0.00 | 0.00 | 96 | 1007.0 |
| 20260503213037 | 49 | 91 | 0.0 | 0.0 | 0.00 | 0.00 | 0.00 | 96 | 1007.0 |
| 20260503211539 | 49 | 91 | 0.0 | 0.0 | 0.00 | 0.00 | 0.00 | 95 | 1007.2 |
| 20260503210039 | 49 | 109 | 0.0 | 0.0 | 0.00 | 0.00 | 0.00 | 96 | 1007.2 |
| 20260503204638 | 49 | 123 | 0.0 | 0.0 | 0.00 | 0.00 | 0.00 | 95 | 1007.3 |
| 20260503203036 | 49 | 140 | 0.0 | 0.0 | 0.00 | 0.00 | 0.00 | 95 | 1007.4 |
| 20260503201541 | 49 | 140 | 0.0 | 0.0 | 0.00 | 0.00 | 0.00 | 95 | 1007.6 |
| 20260503200043 | 49 | 140 | 0.0 | 0.0 | 0.00 | 0.00 | 0.00 | 95 | 1007.7 |
| 20260503194639 | 50 | 140 | 0.0 | 0.0 | 0.00 | 0.00 | 0.00 | 95 | 1007.8 |
| 20260503193043 | 50 | 140 | 0.0 | 0.0 | 0.00 | 0.00 | 0.00 | 95 | 1008.0 |
| 20260503191537 | 50 | 140 | 0.0 | 0.0 | 0.00 | 0.00 | 0.00 | 94 | 1008.0 |
| 20260503190037 | 50 | 88 | 0.0 | 0.0 | 0.00 | 0.00 | 0.00 | 94 | 1007.9 |
| 20260503184549 | 50 | 88 | 0.0 | 0.0 | 0.00 | 0.00 | 0.00 | 94 | 1007.8 |
| 20260503183051 | 50 | 88 | 0.0 | 0.0 | 0.00 | 0.00 | 0.00 | 94 | 1007.8 |
| 20260503181635 | 50 | 86 | 0.0 | 3.0 | 0.00 | 0.00 | 0.00 | 94 | 1007.8 |
| 20260503180036 | 50 | 22 | 0.0 | 0.0 | 0.00 | 0.00 | 0.00 | 94 | 1007.7 |
| 20260503174538 | 50 | 22 | 0.0 | 0.0 | 0.00 | 0.00 | 0.00 | 94 | 1007.7 |
| 20260503173035 | 50 | 22 | 0.0 | 0.0 | 0.00 | 0.00 | 0.00 | 94 | 1007.7 |
| 20260503171536 | 50 | 22 | 0.0 | 3.0 | 0.00 | 0.00 | 0.00 | 94 | 1007.8 |
| 20260503090135 | 51 | 312 | 3.0 | 7.0 | 0.00 | 0.00 | 0.00 | 91 | 1008.4 |
| 20260503081604 | 50 | 285 | 3.0 | 5.0 | 0.00 | 0.00 | 0.00 | 91 | 1008.3 |
| 20260503071538 | 50 | 348 | 5.0 | 7.0 | 0.00 | 0.00 | 0.00 | 90 | 1007.9 |
| 20260503070134 | 50 | 320 | 5.0 | 7.0 | 0.00 | 0.00 | 0.00 | 89 | 1007.9 |
| 20260503054544 | 51 | 336 | 1.0 | 4.0 | 0.00 | 0.00 | 0.00 | 85 | 1007.6 |
| 20260503053040 | 51 | 350 | 0.0 | 2.0 | 0.00 | 0.00 | 0.00 | 85 | 1007.7 |
| 20260503051634 | 51 | 317 | 1.0 | 3.0 | 0.00 | 0.00 | 0.00 | 85 | 1007.6 |
| 20260503050039 | 50 | 290 | 1.0 | 3.0 | 0.00 | 0.00 | 0.00 | 85 | 1007.6 |
| 20260503044542 | 50 | 265 | 1.0 | 4.0 | 0.00 | 0.00 | 0.00 | 85 | 1007.6 |